[[{"header":{"parameterUnit":"m.s-1","parameterCategory":2,"la1":30.2991,"la2":30.254,"lo1":-89.0895,"lo2":-89.0444,"dy":0.0017,"dx":0.0017,"nx":28,"ny":28,"refTime":"2023-08-01T21:00:00:Z","depth":"0","parameterNumber":2,"parameterNumberName":"U-component_of_CURRENTS"},"data":[0,0,0,0,0,0,0,0,0,0,0,0,0,0,0,0,0,0,0,0,0,0,0,0,0,0,0,0,0,0,0,0,0,0,0,0,0,0,0,0,0,0,0,0,0,0,0,0,0,0,0,0,0,0,0,0,0,0,-0.3016,-0.3016,0,-0.3006,-0.3006,-0.3006,-0.2963,-0.2962,-0.2961,-0.296,-0.2834,-0.2831,-0.2829,0,0,0,0,0,0,0,0,0,0,0,0,0,-0.3009,-0.3009,-0.3016,-0.3016,-0.3016,-0.3006,-0.3006,-0.3006,-0.2963,-0.2962,-0.2961,-0.296,-0.2835,-0.2832,-0.2829,0,0,0,0,0,0,0,0,0,0,0,0,0,-0.3005,-0.3009,-0.3016,-0.2995,-0.2993,-0.3006,-0.3006,-0.3006,-0.2963,-0.2962,-0.2961,-0.2959,-0.2836,-0.2832,-0.2828,-0.283,0,0,-0.2817,-0.2815,0,0,0,0,0,0,0,0,-0.3006,-0.3005,-0.2998,-0.2996,-0.2994,-0.2986,-0.2957,-0.2942,-0.2963,-0.2973,-0.296,-0.2959,-0.2876,-0.2869,-0.2869,-0.2825,-0.2819,-0.2816,-0.2814,-0.2812,-0.2811,0,0,0,0,0,0,0,-0.3006,-0.3006,-0.3011,-0.2998,-0.2996,-0.299,-0.2987,-0.2955,-0.2928,-0.2972,-0.2969,-0.2971,-0.2874,-0.2873,-0.2866,-0.2817,-0.2816,-0.2813,-0.2811,-0.2809,-0.2756,-0.2757,0,0,0,0,0,0,-0.3011,-0.3006,-0.3011,-0.301,-0.2999,-0.2991,-0.2988,-0.2989,-0.2931,-0.2923,-0.2972,-0.2969,-0.288,-0.287,-0.2861,-0.2854,-0.2812,-0.2809,-0.2806,-0.2755,-0.2756,-0.2757,0,0,0,0,0,0,-0.3011,-0.3012,-0.3011,-0.3009,-0.3009,-0.2992,-0.2993,-0.2989,-0.2979,-0.2933,-0.2921,-0.2965,-0.2879,-0.2866,-0.2837,-0.2848,-0.2807,-0.2803,-0.2754,-0.2755,-0.2756,-0.2843,0,0,0,0,0,0,-0.3011,-0.3012,-0.3011,-0.301,-0.3009,-0.3026,-0.2994,-0.299,-0.2983,-0.2979,-0.2923,-0.2911,-0.2877,-0.2843,-0.2833,-0.2842,-0.28,-0.2753,-0.2754,-0.2756,-0.2839,-0.2847,-0.2854,0,0,0,0,0,-0.3011,-0.3023,-0.3011,-0.3012,-0.301,-0.3027,-0.3026,-0.3009,-0.2984,-0.2991,-0.2953,-0.2912,-0.2847,-0.2841,-0.2829,-0.2837,-0.2752,-0.2754,-0.2756,-0.2836,-0.2845,-0.2854,0,0,0,0,0,0,-0.302,-0.302,-0.3007,-0.3017,-0.3022,-0.302,-0.3024,-0.301,-0.2988,-0.2976,-0.2923,-0.2909,-0.2891,-0.2853,-0.2848,-0.2828,-0.2792,-0.2792,-0.2857,-0.2866,-0.2873,-0.2849,-0.2797,0,0,0,0,0,-0.3023,-0.3026,-0.303,-0.3035,-0.304,-0.3029,-0.3031,-0.3023,-0.3007,-0.2996,-0.2957,-0.2917,-0.2894,-0.287,-0.2844,-0.2828,-0.2785,-0.2826,-0.2833,-0.284,-0.2813,-0.2771,-0.2772,-0.2763,-0.2763,-0.2763,0,0,-0.3026,-0.3026,-0.3027,-0.3037,-0.3035,-0.3046,-0.3026,-0.3037,-0.3036,-0.2984,-0.2965,-0.2943,-0.2897,-0.2888,-0.2875,-0.2853,-0.2829,-0.2842,-0.2849,-0.2817,-0.2774,-0.2774,-0.2775,-0.2765,-0.2764,-0.2764,0,0,-0.3035,-0.3037,-0.304,-0.3052,-0.3059,-0.3061,-0.3064,-0.3063,-0.3054,-0.3048,-0.3011,-0.2998,-0.2952,-0.2932,-0.2912,-0.2942,-0.2875,-0.2931,-0.294,-0.2902,-0.2901,-0.29,-0.2884,-0.2881,-0.2928,-0.2928,-0.2928,0,-0.3038,-0.3041,-0.3046,-0.3058,-0.3063,-0.3066,-0.3074,-0.3078,-0.3065,-0.3051,-0.3049,-0.2992,-0.2975,-0.2945,-0.2965,-0.2959,-0.292,-0.2913,-0.291,-0.2908,-0.2906,-0.2888,-0.2884,-0.2933,-0.2932,-0.2932,-0.2931,0,-0.3045,-0.3053,-0.3063,-0.307,-0.308,-0.3098,-0.3104,-0.3106,-0.3097,-0.309,-0.3067,-0.3051,-0.3006,-0.3019,-0.3001,-0.2975,-0.2951,-0.2933,-0.2887,-0.2912,-0.2893,-0.2886,-0.2939,-0.2937,-0.2936,-0.2935,0,0,-0.3031,-0.3061,-0.3062,-0.305,-0.309,-0.3082,-0.3106,-0.3107,-0.3084,-0.3096,-0.3062,-0.3067,-0.3045,-0.302,-0.3001,-0.2978,-0.2971,-0.2945,-0.2941,-0.2928,-0.2885,-0.2688,-0.2662,-0.2939,-0.2938,-0.2937,-0.2892,0,-0.303,-0.3036,-0.3065,-0.3062,-0.3056,-0.3083,-0.309,-0.3092,-0.3091,-0.3066,-0.3064,-0.3028,-0.3048,-0.3018,-0.3008,-0.2974,-0.295,-0.2984,-0.2861,-0.2858,-0.2677,-0.2645,-0.2369,-0.2287,-0.2885,-0.2884,-0.2883,0,-0.3016,-0.3015,-0.3014,-0.3017,-0.3019,-0.3023,-0.3005,-0.3015,-0.3014,-0.3012,-0.2997,-0.2983,-0.2971,-0.2971,-0.2931,-0.2944,-0.2911,-0.2891,-0.2888,-0.2653,-0.2644,-0.235,-0.2252,-0.1953,-0.2873,-0.2874,-0.2874,0,-0.2944,-0.2974,-0.2958,-0.2964,-0.298,-0.297,-0.2978,-0.2983,-0.2969,-0.2956,-0.2936,-0.293,-0.2902,-0.2878,-0.2864,-0.2882,-0.28,-0.2825,-0.2618,-0.2607,-0.2316,-0.2278,-0.1897,-0.276,-0.276,-0.276,-0.276,0,-0.2908,-0.289,-0.2913,-0.2892,-0.2856,-0.2894,-0.2855,-0.2868,-0.2873,-0.2842,-0.2881,-0.2836,-0.2866,-0.2835,-0.2833,-0.2692,-0.2778,-0.2585,-0.2556,-0.2342,-0.2308,-0.1989,-0.1985,-0.2758,-0.2759,-0.2759,-0.2759,0,-0.2803,-0.2842,-0.2809,-0.2817,-0.2813,-0.2773,-0.2778,-0.275,-0.2776,-0.2735,-0.2725,-0.2751,-0.2695,-0.2711,-0.2668,-0.2608,-0.2425,-0.2454,-0.2208,-0.2146,-0.1631,-0.1648,-0.1681,-0.1726,-0.2198,-0.2193,-0.2188,0,-0.2738,-0.2712,-0.2716,-0.2694,-0.2691,-0.2655,-0.2637,-0.2679,-0.2663,-0.2666,-0.2635,-0.2587,-0.2497,-0.2371,-0.2248,-0.2145,-0.221,-0.1838,-0.1801,-0.1504,-0.1505,-0.1838,-0.1904,-0.1494,-0.1484,-0.1476,-0.1469,0,-0.2589,-0.2607,-0.2581,-0.2548,-0.2524,-0.2495,-0.2482,-0.2471,-0.2516,-0.2469,-0.2399,-0.2319,-0.215,-0.181,-0.1659,-0.1651,-0.1706,-0.166,-0.1397,-0.0925,-0.1221,-0.1279,-0.1669,-0.1396,-0.1403,-0.1409,-0.1413,-0.1415,-0.2459,-0.2424,-0.2412,-0.2366,-0.2358,-0.2332,-0.2245,-0.2244,-0.2182,-0.2023,-0.2102,-0.1772,-0.1341,-0.104,-0.1022,-0.0655,-0.1172,-0.0516,-0.0575,-0.0954,-0.0923,-0.1145,-0.0804,-0.0808,-0.0811,-0.0814,-0.0816,0,-0.2267,-0.2265,-0.2227,-0.2182,-0.2125,-0.2167,-0.2118,-0.1979,-0.1828,-0.1624,-0.145,-0.0786,-0.0315,-0.0045,0.0384,0.0519,0.0145,0.0492,0.0184,0.0046,-0.0051,0.0084,0.0694,0.0694,0.0694,0.0693,0.0693,0.0693,-0.2167,-0.2084,-0.2082,-0.1948,-0.192,-0.1747,-0.1679,-0.1482,-0.1261,-0.0744,-0.0273,-0.0067,0.0357,0.109,0.1492,0.141,0.1138,0.1037,0.0775,0.0985,0.0887,0.0794,0.0939,0.1718,0.1719,0.0842,0.0839,0.0836]},{"header":{"parameterUnit":"m.s-1","parameterCategory":2,"la1":30.2991,"la2":30.254,"lo1":-89.0895,"lo2":-89.0444,"dy":0.0017,"dx":0.0017,"nx":28,"ny":28,"refTime":"2023-08-01T21:00:00:Z","depth":"0","parameterNumber":3,"parameterNumberName":"V-component_of_CURRENTS"},"data":[0,0,0,0,0,0,0,0,0,0,0,0,0,0,0,0,0,0,0,0,0,0,0,0,0,0,0,0,0,0,0,0,0,0,0,0,0,0,0,0,0,0,0,0,0,0,0,0,0,0,0,0,0,0,0,0,0,0,-0.0355,-0.0354,0,-0.0288,-0.0287,-0.0286,-0.0246,-0.0245,-0.0245,-0.0245,-0.0097,-0.0093,-0.009,0,0,0,0,0,0,0,0,0,0,0,0,0,-0.0377,-0.0377,-0.0355,-0.0354,-0.0353,-0.0288,-0.0287,-0.0286,-0.0246,-0.0245,-0.0245,-0.0245,-0.0098,-0.0094,-0.0089,0,0,0,0,0,0,0,0,0,0,0,0,0,-0.0343,-0.0377,-0.0355,-0.0326,-0.0323,-0.0288,-0.0287,-0.0286,-0.0246,-0.0245,-0.0245,-0.0245,-0.01,-0.0094,-0.0089,-0.0056,0,0,-0.0071,-0.0068,0,0,0,0,0,0,0,0,-0.0345,-0.0343,-0.0331,-0.0328,-0.0324,-0.0276,-0.024,-0.0205,-0.0246,-0.0274,-0.0245,-0.0245,-0.015,-0.014,-0.0128,-0.0049,-0.0043,-0.007,-0.0067,-0.0064,-0.0063,0,0,0,0,0,0,0,-0.0348,-0.0345,-0.0327,-0.033,-0.0326,-0.0292,-0.0288,-0.0233,-0.0211,-0.0271,-0.0269,-0.0263,-0.0147,-0.0133,-0.0124,-0.0041,-0.0071,-0.0065,-0.0062,-0.006,0.0061,0.0061,0,0,0,0,0,0,-0.0362,-0.0348,-0.033,-0.0325,-0.0336,-0.0292,-0.0287,-0.0291,-0.0214,-0.0203,-0.0263,-0.0261,-0.0143,-0.013,-0.0118,-0.0092,-0.0064,-0.0059,-0.0056,0.0061,0.0061,0.0061,0,0,0,0,0,0,-0.0363,-0.0362,-0.0332,-0.0335,-0.0329,-0.0293,-0.0296,-0.029,-0.028,-0.0208,-0.0196,-0.0262,-0.0143,-0.0126,-0.0085,-0.0085,-0.0057,-0.0051,0.0062,0.0061,0.0061,-0.0028,0,0,0,0,0,0,-0.0364,-0.0363,-0.0377,-0.0336,-0.0329,-0.0333,-0.0296,-0.0288,-0.0277,-0.0274,-0.0203,-0.0189,-0.0141,-0.0094,-0.008,-0.0077,-0.0047,0.0062,0.0061,0.0061,-0.0025,-0.0032,-0.0037,0,0,0,0,0,-0.0365,-0.0393,-0.0378,-0.0376,-0.0348,-0.0334,-0.0328,-0.03,-0.0278,-0.0288,-0.0236,-0.0191,-0.0086,-0.009,-0.0073,-0.0068,0.0062,0.0061,0.0061,-0.0022,-0.003,-0.0037,0,0,0,0,0,0,-0.0418,-0.039,-0.0373,-0.0393,-0.0372,-0.0328,-0.0334,-0.0307,-0.0273,-0.0264,-0.0194,-0.0178,-0.014,-0.0094,-0.01,-0.0035,-0.0004,-0.0001,-0.0073,-0.008,-0.0086,-0.0113,-0.0042,0,0,0,0,0,-0.0434,-0.0443,-0.0409,-0.0426,-0.0418,-0.0374,-0.0365,-0.0342,-0.0303,-0.0289,-0.0233,-0.0174,-0.0127,-0.0099,-0.0048,-0.0013,-0.0014,0.0002,-0.0005,-0.001,-0.002,-0.0031,-0.004,0.0059,0.0059,0.0059,0,0,-0.0457,-0.0444,-0.0449,-0.0437,-0.0415,-0.0404,-0.0369,-0.0361,-0.0347,-0.0275,-0.0241,-0.0192,-0.0123,-0.0088,-0.0066,-0.005,-0.0043,-0.0011,-0.0016,-0.0023,-0.0033,-0.0043,-0.0051,0.0058,0.0058,0.0059,0,0,-0.0497,-0.0498,-0.0508,-0.0493,-0.0466,-0.044,-0.0441,-0.0394,-0.0376,-0.034,-0.0284,-0.0246,-0.0163,-0.0124,-0.0091,-0.01,-0.0077,-0.0075,-0.0124,-0.0135,-0.0144,-0.0152,-0.0195,-0.0206,-0.0077,-0.0078,-0.0078,0,-0.0521,-0.0527,-0.0511,-0.0509,-0.0499,-0.0458,-0.0456,-0.0433,-0.0378,-0.0375,-0.0341,-0.0252,-0.0183,-0.0158,-0.015,-0.0114,-0.0131,-0.0104,-0.0147,-0.0154,-0.0161,-0.0203,-0.0214,-0.0082,-0.0081,-0.0081,-0.0081,0,-0.0553,-0.0555,-0.0563,-0.0542,-0.0538,-0.0533,-0.0497,-0.0489,-0.0455,-0.0429,-0.0404,-0.0326,-0.028,-0.0245,-0.0189,-0.0196,-0.0199,-0.0159,-0.0137,-0.0177,-0.0218,-0.0228,-0.0088,-0.0087,-0.0085,-0.0084,0,0,-0.0596,-0.0585,-0.0583,-0.0577,-0.0551,-0.0548,-0.0546,-0.0538,-0.0549,-0.0499,-0.0512,-0.0419,-0.0393,-0.0354,-0.029,-0.0283,-0.033,-0.024,-0.0238,-0.03,-0.0392,-0.0304,-0.0306,-0.0303,-0.0305,-0.0306,-0.0414,0,-0.0614,-0.0616,-0.061,-0.0612,-0.0604,-0.0589,-0.0596,-0.059,-0.0576,-0.0582,-0.0533,-0.051,-0.0431,-0.0409,-0.0395,-0.0335,-0.0355,-0.0306,-0.0329,-0.033,-0.0259,-0.0313,-0.0189,-0.0266,-0.0424,-0.0425,-0.0427,0,-0.0632,-0.0628,-0.0631,-0.0639,-0.064,-0.0644,-0.0665,-0.0666,-0.068,-0.0672,-0.0667,-0.0632,-0.0607,-0.0531,-0.0508,-0.0485,-0.0451,-0.0416,-0.0419,-0.0309,-0.0258,-0.0242,-0.0277,-0.0211,-0.0441,-0.044,-0.0439,0,-0.0642,-0.0646,-0.0649,-0.0645,-0.0648,-0.0666,-0.0677,-0.0697,-0.0717,-0.0736,-0.0759,-0.0739,-0.0724,-0.0687,-0.0595,-0.0565,-0.0584,-0.0534,-0.0446,-0.0442,-0.0324,-0.0304,-0.0304,-0.0548,-0.0548,-0.0547,-0.0547,0,-0.0648,-0.065,-0.0656,-0.065,-0.0687,-0.0685,-0.0734,-0.0748,-0.0782,-0.0818,-0.0804,-0.0821,-0.0758,-0.075,-0.0669,-0.059,-0.0652,-0.0475,-0.046,-0.0351,-0.0334,-0.0257,-0.026,-0.0551,-0.0551,-0.055,-0.0549,0,-0.064,-0.0642,-0.0652,-0.0668,-0.0685,-0.071,-0.077,-0.0813,-0.0835,-0.0883,-0.0894,-0.0905,-0.0884,-0.0836,-0.0779,-0.0678,-0.0534,-0.0572,-0.0461,-0.0428,-0.0242,-0.0254,-0.0259,-0.0123,-0.0504,-0.0502,-0.0501,0,-0.0627,-0.0624,-0.0663,-0.0699,-0.0708,-0.0752,-0.08,-0.0832,-0.0871,-0.0918,-0.0944,-0.0959,-0.0897,-0.0812,-0.0701,-0.0604,-0.0511,-0.0407,-0.0295,-0.0231,-0.0235,-0.0235,-0.0119,-0.0205,-0.0202,-0.0199,-0.0196,0,-0.0599,-0.0619,-0.0644,-0.0717,-0.0771,-0.0823,-0.0879,-0.0899,-0.0934,-0.0898,-0.0857,-0.0804,-0.0787,-0.06,-0.0513,-0.0427,-0.029,-0.0339,-0.0297,-0.0025,-0.0004,0.0137,-0.0171,-0.017,-0.0172,-0.0174,-0.0176,-0.0177,-0.0583,-0.0621,-0.0674,-0.0747,-0.0816,-0.0862,-0.0821,-0.0823,-0.0771,-0.0553,-0.0635,-0.032,-0.029,-0.0136,-0.0193,-0.0083,-0.0131,0.0068,0.003,0.001,0.0209,-0.0048,0.0006,0.0004,0.0003,0.0001,0.0,0,-0.0548,-0.0621,-0.0704,-0.0776,-0.0828,-0.0857,-0.0848,-0.0702,-0.0499,-0.0209,0.0033,0.0519,0.0464,0.0393,0.0353,0.0345,0.0361,0.0356,0.0381,0.0479,0.0231,0.032,0.0478,0.0478,0.0478,0.0478,0.0478,0.0478,-0.0534,-0.0611,-0.0679,-0.0763,-0.0792,-0.0701,-0.0626,-0.0344,-0.006,0.0663,0.1222,0.1547,0.1521,0.092,0.065,0.0608,0.0696,0.061,0.0648,0.0455,0.0426,0.0398,0.0485,0.0674,0.0674,0.101,0.1012,0.1014]}],[{"header":{"parameterUnit":"m.s-1","parameterCategory":2,"la1":30.2991,"la2":30.254,"lo1":-89.0895,"lo2":-89.0444,"dy":0.0017,"dx":0.0017,"nx":28,"ny":28,"refTime":"2023-08-01T21:00:00:Z","depth":"2","parameterNumber":2,"parameterNumberName":"U-component_of_CURRENTS"},"data":[0,0,0,0,0,0,0,0,0,0,0,0,0,0,0,0,0,0,0,0,0,0,0,0,0,0,0,0,0,0,0,0,0,0,0,0,0,0,0,0,0,0,0,0,0,0,0,0,0,0,0,0,0,0,0,0,0,0,-0.1623,-0.1624,0,-0.1698,-0.1698,-0.1698,-0.1757,-0.1759,-0.176,-0.1761,-0.1919,-0.1922,-0.1925,0,0,0,0,0,0,0,0,0,0,0,0,0,-0.1467,-0.1469,-0.1623,-0.1625,-0.1626,-0.1698,-0.1698,-0.1698,-0.1757,-0.1759,-0.176,-0.1762,-0.1918,-0.1921,-0.1925,0,0,0,0,0,0,0,0,0,0,0,0,0,-0.153,-0.147,-0.1623,-0.167,-0.1676,-0.1698,-0.1698,-0.1698,-0.1757,-0.1759,-0.1761,-0.1763,-0.1917,-0.1921,-0.1925,-0.1912,0,0,-0.1939,-0.1941,0,0,0,0,0,0,0,0,-0.1526,-0.1534,-0.1662,-0.1667,-0.1674,-0.1728,-0.1701,-0.1777,-0.1756,-0.1717,-0.1761,-0.1764,-0.1867,-0.1875,-0.1872,-0.1919,-0.1926,-0.1939,-0.1942,-0.1944,-0.1945,0,0,0,0,0,0,0,-0.1522,-0.1531,-0.1644,-0.1664,-0.1671,-0.1667,-0.1678,-0.1714,-0.1775,-0.1721,-0.1727,-0.1748,-0.187,-0.1867,-0.1876,-0.1928,-0.1939,-0.1943,-0.1946,-0.1947,-0.1973,-0.1971,0,0,0,0,0,0,-0.1531,-0.1527,-0.1642,-0.1647,-0.1613,-0.1669,-0.1681,-0.1701,-0.1773,-0.1787,-0.1746,-0.1751,-0.1858,-0.1871,-0.1882,-0.1878,-0.1944,-0.1948,-0.195,-0.1975,-0.1973,-0.1971,0,0,0,0,0,0,-0.1527,-0.154,-0.1639,-0.1595,-0.1609,-0.1671,-0.1693,-0.1702,-0.173,-0.1793,-0.1808,-0.1771,-0.1861,-0.1876,-0.1938,-0.1885,-0.195,-0.1954,-0.1977,-0.1974,-0.1972,-0.1866,0,0,0,0,0,0,-0.1522,-0.1538,-0.1553,-0.1596,-0.1612,-0.1633,-0.1692,-0.1702,-0.1743,-0.175,-0.1818,-0.1833,-0.1863,-0.1931,-0.1942,-0.1892,-0.1957,-0.198,-0.1976,-0.1973,-0.1872,-0.186,-0.185,0,0,0,0,0,-0.1516,-0.153,-0.1553,-0.1567,-0.1631,-0.1632,-0.1637,-0.1683,-0.1742,-0.1722,-0.1802,-0.1832,-0.1913,-0.1935,-0.1948,-0.1898,-0.1982,-0.1977,-0.1973,-0.1877,-0.1862,-0.185,0,0,0,0,0,0,-0.1485,-0.1539,-0.1565,-0.16,-0.1607,-0.1645,-0.1663,-0.1693,-0.1737,-0.1771,-0.1837,-0.1855,-0.1875,-0.1909,-0.1931,-0.189,-0.194,-0.1938,-0.1862,-0.1849,-0.1838,-0.182,-0.1961,0,0,0,0,0,-0.1482,-0.1494,-0.1539,-0.1558,-0.1581,-0.1626,-0.1642,-0.1662,-0.1712,-0.1734,-0.1793,-0.1844,-0.1856,-0.1879,-0.1901,-0.1905,-0.1927,-0.187,-0.1859,-0.1849,-0.1841,-0.1833,-0.182,-0.1956,-0.1956,-0.1956,0,0,-0.1464,-0.1508,-0.1508,-0.1549,-0.1583,-0.158,-0.1639,-0.1661,-0.165,-0.1747,-0.1783,-0.1819,-0.1852,-0.1841,-0.1849,-0.1872,-0.1821,-0.1844,-0.1835,-0.1833,-0.1827,-0.1814,-0.1802,-0.1953,-0.1954,-0.1954,0,0,-0.1432,-0.1493,-0.1487,-0.1496,-0.1541,-0.1561,-0.1572,-0.1619,-0.1637,-0.1666,-0.1716,-0.1726,-0.1789,-0.1765,-0.1769,-0.1711,-0.1764,-0.172,-0.165,-0.1641,-0.163,-0.1621,-0.1628,-0.162,-0.1711,-0.171,-0.171,0,-0.1422,-0.1431,-0.1477,-0.1482,-0.1501,-0.1556,-0.1549,-0.1553,-0.1604,-0.1625,-0.1669,-0.1718,-0.1732,-0.1693,-0.1654,-0.1679,-0.1711,-0.17,-0.1626,-0.1618,-0.161,-0.162,-0.1612,-0.1705,-0.1705,-0.1706,-0.1707,0,-0.1379,-0.139,-0.14,-0.1422,-0.1429,-0.1435,-0.1461,-0.1477,-0.1536,-0.1549,-0.1561,-0.1579,-0.1605,-0.1581,-0.1602,-0.1534,-0.1587,-0.1616,-0.1662,-0.159,-0.1605,-0.1599,-0.1697,-0.1699,-0.17,-0.1702,0,0,-0.1362,-0.1367,-0.1367,-0.1375,-0.1409,-0.1413,-0.1408,-0.1417,-0.1438,-0.1457,-0.1471,-0.1435,-0.1469,-0.147,-0.1479,-0.1449,-0.1392,-0.1506,-0.1509,-0.1515,-0.1404,-0.1212,-0.1188,-0.1432,-0.1431,-0.1429,-0.1436,0,-0.1328,-0.13,-0.1316,-0.1297,-0.1306,-0.1351,-0.1342,-0.1351,-0.1388,-0.1409,-0.1402,-0.1413,-0.1417,-0.1428,-0.1392,-0.1412,-0.1375,-0.1389,-0.1472,-0.1474,-0.1312,-0.1172,-0.1152,-0.1135,-0.1431,-0.143,-0.1429,0,-0.1286,-0.1286,-0.1244,-0.1267,-0.1281,-0.1267,-0.1309,-0.1301,-0.1321,-0.1354,-0.1358,-0.1385,-0.1332,-0.1354,-0.1327,-0.1355,-0.1356,-0.1363,-0.1364,-0.1216,-0.1267,-0.1255,-0.1114,-0.142,-0.1421,-0.1422,-0.1422,0,-0.1245,-0.1245,-0.1213,-0.1215,-0.1234,-0.1241,-0.1262,-0.1287,-0.1293,-0.1312,-0.1326,-0.132,-0.1307,-0.1313,-0.1278,-0.1335,-0.1252,-0.1342,-0.1167,-0.1158,-0.1163,-0.1153,-0.1296,-0.1296,-0.1296,-0.1296,-0.1296,0,-0.1201,-0.1186,-0.1194,-0.1177,-0.1182,-0.1211,-0.1216,-0.1244,-0.1263,-0.1251,-0.1285,-0.1255,-0.1296,-0.1254,-0.1264,-0.1149,-0.1234,-0.1108,-0.1114,-0.1121,-0.1107,-0.1385,-0.1396,-0.1296,-0.1296,-0.1296,-0.1296,0,-0.1132,-0.1126,-0.1117,-0.1139,-0.1151,-0.1154,-0.1187,-0.1189,-0.1215,-0.1198,-0.1197,-0.1204,-0.1126,-0.1116,-0.1103,-0.1085,-0.103,-0.0966,-0.0954,-0.0952,-0.0976,-0.0982,-0.0831,-0.0823,-0.0817,-0.0812,-0.0807,0,-0.1076,-0.1056,-0.1081,-0.108,-0.1087,-0.1102,-0.1108,-0.1154,-0.1153,-0.1141,-0.1118,-0.1042,-0.0949,-0.0826,-0.0743,-0.0672,-0.0798,-0.0658,-0.0708,-0.089,-0.0915,-0.093,-0.0943,-0.072,-0.0715,-0.0711,-0.0708,0,-0.0996,-0.1009,-0.1004,-0.1008,-0.1015,-0.1022,-0.1037,-0.1034,-0.1064,-0.1048,-0.0986,-0.0906,-0.0706,-0.0572,-0.0418,-0.0407,-0.0668,-0.0567,-0.0767,-0.0784,-0.0769,-0.0798,-0.0819,-0.0673,-0.0677,-0.0679,-0.0681,-0.0682,-0.0946,-0.0936,-0.0935,-0.0939,-0.0944,-0.0935,-0.0918,-0.0932,-0.0916,-0.0843,-0.0825,-0.0663,-0.0588,-0.0267,-0.0212,-0.0194,-0.0261,-0.0388,-0.041,-0.0433,-0.0361,-0.0329,-0.0142,-0.0142,-0.0142,-0.0143,-0.0143,0,-0.0878,-0.0875,-0.0869,-0.0863,-0.0834,-0.0863,-0.0858,-0.0806,-0.0763,-0.0657,-0.0564,-0.0403,-0.0248,-0.0167,-0.0045,-0.0014,-0.0117,-0.0081,-0.0277,-0.0308,-0.0337,-0.027,-0.0022,-0.0022,-0.0021,-0.0021,0,0,-0.0837,-0.0815,-0.0817,-0.0754,-0.0742,-0.0672,-0.0654,-0.0589,-0.05,-0.037,-0.0267,-0.015,-0.0117,-0.0042,-0.0033,-0.0005,-0.016,-0.0004,-0.0102,-0.0359,-0.0387,-0.0509,-0.0436,0,0,0,0,0]},{"header":{"parameterUnit":"m.s-1","parameterCategory":2,"la1":30.2991,"la2":30.254,"lo1":-89.0895,"lo2":-89.0444,"dy":0.0017,"dx":0.0017,"nx":28,"ny":28,"refTime":"2023-08-01T21:00:00:Z","depth":"2","parameterNumber":3,"parameterNumberName":"V-component_of_CURRENTS"},"data":[0,0,0,0,0,0,0,0,0,0,0,0,0,0,0,0,0,0,0,0,0,0,0,0,0,0,0,0,0,0,0,0,0,0,0,0,0,0,0,0,0,0,0,0,0,0,0,0,0,0,0,0,0,0,0,0,0,0,-0.0686,-0.0686,0,-0.063,-0.0628,-0.0626,-0.0505,-0.0504,-0.0503,-0.0502,-0.0245,-0.0239,-0.0233,0,0,0,0,0,0,0,0,0,0,0,0,0,-0.0661,-0.0661,-0.0686,-0.0686,-0.0687,-0.063,-0.0628,-0.0626,-0.0505,-0.0504,-0.0502,-0.0501,-0.0246,-0.024,-0.0233,0,0,0,0,0,0,0,0,0,0,0,0,0,-0.0632,-0.0661,-0.0686,-0.063,-0.0625,-0.063,-0.0628,-0.0625,-0.0506,-0.0504,-0.0502,-0.05,-0.0249,-0.024,-0.0232,-0.0215,0,0,-0.0206,-0.0202,0,0,0,0,0,0,0,0,-0.0634,-0.0631,-0.0638,-0.0634,-0.0629,-0.0585,-0.0526,-0.0483,-0.0506,-0.0537,-0.0502,-0.05,-0.035,-0.0333,-0.031,-0.0203,-0.0192,-0.0205,-0.02,-0.0196,-0.0194,0,0,0,0,0,0,0,-0.0636,-0.0633,-0.0649,-0.0639,-0.0633,-0.0599,-0.0592,-0.0516,-0.044,-0.0534,-0.0528,-0.0544,-0.0344,-0.0319,-0.0303,-0.0188,-0.0205,-0.0198,-0.0192,-0.0189,0.006,0.0061,0,0,0,0,0,0,-0.0674,-0.0635,-0.0652,-0.0649,-0.0642,-0.0602,-0.0593,-0.0589,-0.0445,-0.0427,-0.0546,-0.0539,-0.0334,-0.0313,-0.0293,-0.0208,-0.0196,-0.0188,-0.0183,0.0058,0.006,0.0061,0,0,0,0,0,0,-0.0673,-0.0675,-0.0654,-0.0653,-0.0649,-0.0606,-0.0602,-0.059,-0.0551,-0.0459,-0.0433,-0.0521,-0.0332,-0.0305,-0.0216,-0.0199,-0.0184,-0.0176,0.0056,0.0059,0.0061,-0.0074,0,0,0,0,0,0,-0.0672,-0.0674,-0.068,-0.0655,-0.0652,-0.0647,-0.0605,-0.059,-0.0571,-0.0561,-0.0429,-0.0404,-0.0328,-0.0229,-0.0207,-0.0187,-0.017,0.0055,0.0057,0.006,-0.0071,-0.0076,-0.0081,0,0,0,0,0,-0.0671,-0.0682,-0.068,-0.0683,-0.0661,-0.0648,-0.064,-0.0595,-0.0572,-0.0552,-0.0469,-0.0407,-0.0195,-0.0223,-0.0197,-0.0173,0.0053,0.0057,0.006,-0.0069,-0.0075,-0.0081,0,0,0,0,0,0,-0.0673,-0.0672,-0.0668,-0.0678,-0.0667,-0.0633,-0.0621,-0.06,-0.0523,-0.0504,-0.0404,-0.0373,-0.0288,-0.0208,-0.0241,-0.0087,-0.0054,-0.0046,-0.016,-0.0165,-0.017,-0.0184,-0.0163,0,0,0,0,0,-0.0686,-0.0694,-0.0684,-0.0698,-0.0686,-0.0656,-0.0647,-0.0621,-0.0565,-0.0529,-0.0447,-0.0344,-0.0258,-0.0197,-0.0111,-0.0036,0.0023,0.0006,0.0001,-0.0004,0.0007,0.0064,0.0063,0.0072,0.0072,0.0072,0,0,-0.0704,-0.0703,-0.0712,-0.0702,-0.0681,-0.066,-0.0639,-0.0626,-0.0602,-0.0513,-0.0435,-0.0367,-0.0244,-0.0162,-0.0113,-0.009,0.0029,-0.0,-0.0006,0.0009,0.0067,0.0066,0.0064,0.0074,0.0074,0.0074,0,0,-0.0726,-0.0725,-0.0725,-0.0709,-0.0697,-0.0674,-0.0674,-0.0634,-0.0597,-0.0544,-0.0468,-0.0402,-0.026,-0.0184,-0.0123,-0.0099,-0.0011,-0.005,-0.0075,-0.0022,-0.0023,-0.0024,0.0051,0.0058,-0.0041,-0.0041,-0.0041,0,-0.0738,-0.0736,-0.0726,-0.0707,-0.0698,-0.0679,-0.066,-0.0629,-0.0569,-0.0537,-0.0524,-0.0348,-0.0273,-0.0165,-0.016,-0.0115,-0.0057,-0.0077,-0.0034,-0.0033,-0.0032,0.0045,0.0054,-0.0047,-0.0047,-0.0046,-0.0045,0,-0.0748,-0.0739,-0.0734,-0.0702,-0.0689,-0.0677,-0.0643,-0.0615,-0.0586,-0.0552,-0.0465,-0.0384,-0.0274,-0.0244,-0.0197,-0.0128,-0.0082,-0.0069,-0.0039,-0.0042,0.0041,0.0053,-0.0056,-0.0054,-0.0052,-0.005,0,0,-0.0775,-0.0744,-0.0742,-0.072,-0.0682,-0.0672,-0.0634,-0.0588,-0.0559,-0.0507,-0.0457,-0.0354,-0.0325,-0.0254,-0.0192,-0.0151,-0.0116,-0.0108,-0.0102,-0.0066,0.0028,0.0043,0.0059,-0.01,-0.0099,-0.0098,0.0079,0,-0.0773,-0.0751,-0.0733,-0.0705,-0.0678,-0.0646,-0.0616,-0.0578,-0.0539,-0.0488,-0.0419,-0.035,-0.032,-0.0284,-0.024,-0.0151,-0.0088,-0.0163,0.0057,0.0065,0.005,0.0071,0.0027,0.018,0.0092,0.0094,0.0095,0,-0.0772,-0.0756,-0.0731,-0.0692,-0.0677,-0.0661,-0.061,-0.0583,-0.0513,-0.0482,-0.0413,-0.0359,-0.028,-0.0275,-0.0118,-0.0164,-0.0068,-0.0005,0.0003,0.0075,0.0102,0.0175,0.0206,0.0117,0.0115,0.0113,0.0112,0,-0.0786,-0.075,-0.0734,-0.072,-0.0674,-0.0656,-0.0635,-0.0578,-0.0551,-0.0481,-0.0458,-0.0351,-0.0313,-0.0191,-0.0063,-0.0086,0.0109,0.0096,0.0218,0.0222,0.026,0.0264,0.0225,0.0225,0.0225,0.0224,0.0224,0,-0.0779,-0.0762,-0.0743,-0.0728,-0.0712,-0.0676,-0.0648,-0.0614,-0.0564,-0.0529,-0.0461,-0.0415,-0.0298,-0.0176,-0.0047,0.0128,0.0134,0.023,0.0268,0.0215,0.0213,0.0219,0.0216,0.0231,0.0229,0.0228,0.0227,0,-0.078,-0.0769,-0.0746,-0.0717,-0.0713,-0.0703,-0.0673,-0.0652,-0.0609,-0.0566,-0.0548,-0.046,-0.0312,-0.0149,0.0047,0.0136,0.0311,0.0388,0.0327,0.0352,0.0388,0.0377,0.0525,0.0527,0.0528,0.053,0.0531,0,-0.0773,-0.0764,-0.0754,-0.0754,-0.074,-0.0725,-0.0717,-0.0678,-0.0653,-0.0583,-0.056,-0.0433,-0.032,-0.0026,0.0175,0.0431,0.041,0.0503,0.0436,0.0397,0.0419,0.0405,0.0392,0.0449,0.045,0.045,0.045,0,-0.0754,-0.076,-0.0749,-0.0761,-0.076,-0.0757,-0.0739,-0.0735,-0.0684,-0.0642,-0.0563,-0.0473,-0.0199,0.0037,0.0334,0.0451,0.0445,0.0516,0.0516,0.0361,0.0335,0.0353,0.0341,0.0454,0.0453,0.0453,0.0453,0.0453,-0.0746,-0.0749,-0.0753,-0.0761,-0.0769,-0.0785,-0.0803,-0.0768,-0.074,-0.0677,-0.0585,-0.0378,-0.0226,0.0237,0.0375,0.0535,0.0558,0.055,0.0546,0.0542,0.0482,0.0458,0.0591,0.0591,0.0592,0.0592,0.0593,0,-0.0739,-0.0747,-0.0752,-0.0774,-0.0798,-0.0798,-0.0813,-0.082,-0.08,-0.0647,-0.0559,-0.0283,-0.0031,0.0211,0.0506,0.0592,0.0535,0.0539,0.0463,0.0461,0.0459,0.0391,0.0479,0.0478,0.0478,0.0478,0,0,-0.0736,-0.0743,-0.075,-0.0793,-0.0817,-0.0876,-0.0902,-0.0884,-0.078,-0.0613,-0.0381,-0.0254,0.0083,0.021,0.0288,0.0443,0.0393,0.04,0.0485,0.0378,0.0373,0.0468,0.0362,0,0,0,0,0]}],[{"header":{"parameterUnit":"m.s-1","parameterCategory":2,"la1":30.2991,"la2":30.254,"lo1":-89.0895,"lo2":-89.0444,"dy":0.0017,"dx":0.0017,"nx":28,"ny":28,"refTime":"2023-08-01T21:00:00:Z","depth":"4","parameterNumber":2,"parameterNumberName":"U-component_of_CURRENTS"},"data":[0,0,0,0,0,0,0,0,0,0,0,0,0,0,0,0,0,0,0,0,0,0,0,0,0,0,0,0,0,0,0,0,0,0,0,0,0,0,0,0,0,0,0,0,0,0,0,0,0,0,0,0,0,0,0,0,0,0,-0.0838,-0.0838,0,-0.0867,-0.0868,-0.0868,-0.0903,-0.0904,-0.0904,-0.0905,-0.0944,-0.0944,-0.0945,0,0,0,0,0,0,0,0,0,0,0,0,0,-0.0828,-0.0828,-0.0838,-0.0838,-0.0838,-0.0867,-0.0868,-0.0868,-0.0903,-0.0904,-0.0904,-0.0905,-0.0944,-0.0944,-0.0945,0,0,0,0,0,0,0,0,0,0,0,0,0,-0.0844,-0.0828,-0.0838,-0.0858,-0.086,-0.0867,-0.0868,-0.0869,-0.0903,-0.0904,-0.0905,-0.0905,-0.0943,-0.0944,-0.0945,-0.0939,0,0,-0.0948,-0.0949,0,0,0,0,0,0,0,0,-0.0843,-0.0844,-0.0855,-0.0857,-0.0859,-0.0881,-0.0879,-0.0892,-0.0903,-0.0888,-0.0905,-0.0905,-0.0922,-0.0925,-0.0931,-0.0941,-0.0943,-0.0948,-0.0949,-0.0949,-0.095,0,0,0,0,0,0,0,-0.0842,-0.0843,-0.0851,-0.0855,-0.0857,-0.0872,-0.0874,-0.0882,-0.0903,-0.089,-0.0892,-0.0893,-0.0924,-0.093,-0.0932,-0.0943,-0.0948,-0.0949,-0.095,-0.095,-0.0988,-0.0989,0,0,0,0,0,0,-0.0834,-0.0842,-0.085,-0.0852,-0.0851,-0.0871,-0.0874,-0.0875,-0.0903,-0.0907,-0.0892,-0.0894,-0.0928,-0.0931,-0.0934,-0.0977,-0.0949,-0.095,-0.0951,-0.0988,-0.0988,-0.0989,0,0,0,0,0,0,-0.0833,-0.0834,-0.0849,-0.0847,-0.0849,-0.087,-0.087,-0.0875,-0.0898,-0.0904,-0.0909,-0.0912,-0.0929,-0.0932,-0.0958,-0.0977,-0.0951,-0.0952,-0.0987,-0.0988,-0.0988,-0.1031,0,0,0,0,0,0,-0.0833,-0.0834,-0.0841,-0.0846,-0.0849,-0.0867,-0.087,-0.0875,-0.0895,-0.0899,-0.0923,-0.0926,-0.0929,-0.0957,-0.0959,-0.0978,-0.0952,-0.0987,-0.0988,-0.0988,-0.1029,-0.1033,-0.1037,0,0,0,0,0,-0.0832,-0.0837,-0.0841,-0.0843,-0.0855,-0.0868,-0.0872,-0.0889,-0.0896,-0.0911,-0.0927,-0.0926,-0.0963,-0.0958,-0.0961,-0.098,-0.0986,-0.0987,-0.0988,-0.1028,-0.1033,-0.1037,0,0,0,0,0,0,-0.0835,-0.0841,-0.0846,-0.0852,-0.0866,-0.0874,-0.0889,-0.0897,-0.0921,-0.0929,-0.0935,-0.094,-0.0966,-0.0965,-0.0959,-0.0991,-0.0973,-0.0974,-0.1002,-0.1006,-0.101,-0.1017,-0.0953,0,0,0,0,0,-0.0837,-0.0844,-0.0852,-0.0858,-0.0868,-0.0881,-0.0891,-0.0902,-0.0918,-0.093,-0.0946,-0.0959,-0.0968,-0.0982,-0.0988,-0.1011,-0.0991,-0.1022,-0.1026,-0.1029,-0.1035,-0.1025,-0.1028,-0.0992,-0.0992,-0.0992,0,0,-0.0836,-0.0843,-0.0845,-0.086,-0.0873,-0.0892,-0.089,-0.091,-0.0932,-0.0929,-0.097,-0.0973,-0.0975,-0.1,-0.1011,-0.1006,-0.1025,-0.1031,-0.1034,-0.1038,-0.1026,-0.103,-0.1033,-0.0992,-0.0992,-0.0992,0,0,-0.084,-0.0849,-0.0861,-0.0876,-0.0898,-0.0908,-0.0917,-0.0938,-0.0958,-0.0984,-0.0988,-0.1006,-0.1023,-0.1035,-0.1038,-0.1065,-0.104,-0.1064,-0.1098,-0.1087,-0.109,-0.1093,-0.1054,-0.1052,-0.1072,-0.1072,-0.1072,0,-0.0845,-0.0858,-0.0867,-0.0887,-0.0905,-0.0918,-0.0941,-0.0959,-0.0988,-0.1005,-0.1003,-0.1031,-0.1039,-0.1066,-0.1079,-0.1076,-0.1053,-0.1083,-0.1093,-0.1095,-0.1097,-0.1056,-0.1054,-0.1075,-0.1074,-0.1074,-0.1074,0,-0.0854,-0.0877,-0.0887,-0.0918,-0.0939,-0.096,-0.0985,-0.1012,-0.1029,-0.1043,-0.1074,-0.1082,-0.1097,-0.1103,-0.1103,-0.1125,-0.1097,-0.1094,-0.1083,-0.1103,-0.1058,-0.1055,-0.1078,-0.1077,-0.1076,-0.1076,0,0,-0.0838,-0.0886,-0.0893,-0.0918,-0.096,-0.0975,-0.1016,-0.1052,-0.1076,-0.1101,-0.1126,-0.1151,-0.1151,-0.1155,-0.1157,-0.116,-0.1151,-0.114,-0.1138,-0.1103,-0.1105,-0.1021,-0.1009,-0.115,-0.115,-0.115,-0.1062,0,-0.085,-0.089,-0.0915,-0.0962,-0.0986,-0.102,-0.1054,-0.1089,-0.1112,-0.1138,-0.1151,-0.1169,-0.1171,-0.1177,-0.1183,-0.1157,-0.1148,-0.1174,-0.1089,-0.1086,-0.1012,-0.1005,-0.1151,-0.106,-0.1059,-0.1058,-0.1058,0,-0.0852,-0.0884,-0.0927,-0.0988,-0.1003,-0.1033,-0.1088,-0.112,-0.1158,-0.1174,-0.1196,-0.1198,-0.1212,-0.1203,-0.1174,-0.1189,-0.1154,-0.113,-0.1126,-0.1033,-0.0997,-0.1039,-0.1052,-0.1053,-0.1053,-0.1054,-0.1054,0,-0.0826,-0.0892,-0.0928,-0.0948,-0.1015,-0.1047,-0.1083,-0.113,-0.1152,-0.1192,-0.1194,-0.1217,-0.1205,-0.1188,-0.1144,-0.1158,-0.109,-0.1096,-0.0985,-0.0977,-0.1062,-0.106,-0.1071,-0.1071,-0.1071,-0.1072,-0.1072,0,-0.0817,-0.0851,-0.0921,-0.0939,-0.0987,-0.1039,-0.1081,-0.1121,-0.1158,-0.1165,-0.1206,-0.119,-0.1201,-0.1164,-0.1137,-0.1037,-0.1077,-0.0981,-0.0952,-0.1078,-0.108,-0.1058,-0.1057,-0.1068,-0.1069,-0.107,-0.107,0,-0.0779,-0.0824,-0.087,-0.0948,-0.0973,-0.1005,-0.107,-0.109,-0.1135,-0.1138,-0.1146,-0.1157,-0.1098,-0.1087,-0.1035,-0.0998,-0.0935,-0.0892,-0.1004,-0.0983,-0.0829,-0.0832,-0.0753,-0.0749,-0.0746,-0.0744,-0.0742,0,-0.076,-0.0779,-0.0861,-0.0885,-0.0922,-0.0975,-0.1002,-0.1067,-0.1078,-0.1095,-0.108,-0.1045,-0.1037,-0.0878,-0.0896,-0.0823,-0.0818,-0.0785,-0.0837,-0.0819,-0.0798,-0.0806,-0.0813,-0.0737,-0.0736,-0.0735,-0.0734,0,-0.0725,-0.0758,-0.0794,-0.084,-0.0878,-0.0912,-0.0954,-0.0948,-0.0998,-0.1045,-0.0963,-0.0916,-0.0841,-0.0796,-0.0743,-0.0703,-0.0814,-0.0753,-0.076,-0.0808,-0.0798,-0.0782,-0.0793,-0.0724,-0.0725,-0.0726,-0.0727,0,-0.0697,-0.071,-0.0753,-0.0788,-0.0828,-0.083,-0.0863,-0.0853,-0.0864,-0.0885,-0.0845,-0.0807,-0.0812,-0.0729,-0.0684,-0.0635,-0.0629,-0.0621,-0.0635,-0.0647,-0.0658,-0.0633,-0.0472,0,0,0,0,0,-0.0666,-0.0669,-0.0696,-0.0724,-0.0756,-0.0773,-0.082,-0.085,-0.0888,-0.0797,-0.0817,-0.074,-0.0652,-0.0641,-0.0565,-0.0652,-0.0649,-0.0564,-0.0653,-0.0664,-0.0677,-0.0703,0,0,0,0,0,0,-0.0641,-0.0664,-0.0674,-0.0658,-0.0653,-0.0676,-0.0696,-0.0724,-0.068,-0.0713,-0.066,-0.0688,-0.0612,-0.0662,-0.0541,-0.054,-0.058,-0.0555,-0.0552,-0.0657,-0.0669,-0.0679,-0.0709,0,0,0,0,0]},{"header":{"parameterUnit":"m.s-1","parameterCategory":2,"la1":30.2991,"la2":30.254,"lo1":-89.0895,"lo2":-89.0444,"dy":0.0017,"dx":0.0017,"nx":28,"ny":28,"refTime":"2023-08-01T21:00:00:Z","depth":"4","parameterNumber":3,"parameterNumberName":"V-component_of_CURRENTS"},"data":[0,0,0,0,0,0,0,0,0,0,0,0,0,0,0,0,0,0,0,0,0,0,0,0,0,0,0,0,0,0,0,0,0,0,0,0,0,0,0,0,0,0,0,0,0,0,0,0,0,0,0,0,0,0,0,0,0,0,-0.049,-0.049,0,-0.0473,-0.0473,-0.0472,-0.0464,-0.0464,-0.0464,-0.0465,-0.0436,-0.0435,-0.0434,0,0,0,0,0,0,0,0,0,0,0,0,0,-0.0472,-0.0473,-0.049,-0.049,-0.049,-0.0473,-0.0473,-0.0472,-0.0464,-0.0464,-0.0464,-0.0465,-0.0436,-0.0435,-0.0434,0,0,0,0,0,0,0,0,0,0,0,0,0,-0.0469,-0.0473,-0.049,-0.0485,-0.0485,-0.0473,-0.0473,-0.0472,-0.0464,-0.0464,-0.0464,-0.0465,-0.0436,-0.0435,-0.0433,-0.042,0,0,-0.0429,-0.0429,0,0,0,0,0,0,0,0,-0.0469,-0.0469,-0.0486,-0.0486,-0.0485,-0.0473,-0.0456,-0.0455,-0.0464,-0.047,-0.0465,-0.0465,-0.0448,-0.0445,-0.0439,-0.0419,-0.0417,-0.0429,-0.0428,-0.0428,-0.0427,0,0,0,0,0,0,0,-0.0469,-0.0469,-0.0482,-0.0486,-0.0485,-0.0469,-0.0469,-0.0455,-0.0456,-0.047,-0.0469,-0.047,-0.0447,-0.0441,-0.0439,-0.0417,-0.0429,-0.0428,-0.0427,-0.0426,-0.0373,-0.0373,0,0,0,0,0,0,-0.0477,-0.047,-0.0482,-0.0481,-0.0479,-0.047,-0.0469,-0.0475,-0.0457,-0.0455,-0.047,-0.047,-0.0443,-0.044,-0.0438,-0.0412,-0.0428,-0.0426,-0.0426,-0.0374,-0.0373,-0.0372,0,0,0,0,0,0,-0.0477,-0.0478,-0.0483,-0.0476,-0.0476,-0.047,-0.0476,-0.0474,-0.0476,-0.0457,-0.0455,-0.0474,-0.0443,-0.0439,-0.0432,-0.0411,-0.0426,-0.0424,-0.0374,-0.0373,-0.0373,-0.0365,0,0,0,0,0,0,-0.0476,-0.0478,-0.0491,-0.0477,-0.0477,-0.0481,-0.0476,-0.0474,-0.0476,-0.0476,-0.046,-0.0457,-0.0443,-0.0435,-0.0431,-0.0409,-0.0423,-0.0375,-0.0374,-0.0373,-0.0366,-0.0364,-0.0363,0,0,0,0,0,-0.0476,-0.0488,-0.0492,-0.0493,-0.0492,-0.0481,-0.0479,-0.0474,-0.0477,-0.0476,-0.0468,-0.0458,-0.0424,-0.0434,-0.0429,-0.0406,-0.0376,-0.0374,-0.0373,-0.0367,-0.0365,-0.0363,0,0,0,0,0,0,-0.0491,-0.0488,-0.0492,-0.0505,-0.0497,-0.048,-0.0484,-0.0479,-0.0472,-0.0477,-0.0459,-0.0455,-0.0438,-0.0427,-0.0438,-0.0387,-0.0395,-0.0393,-0.0392,-0.0389,-0.0387,-0.0377,-0.0422,0,0,0,0,0,-0.05,-0.051,-0.05,-0.0514,-0.051,-0.0499,-0.0497,-0.0493,-0.0483,-0.0481,-0.0467,-0.045,-0.0427,-0.0415,-0.04,-0.0377,-0.0349,-0.0357,-0.0355,-0.0354,-0.0342,-0.0274,-0.0265,-0.0368,-0.0368,-0.0368,0,0,-0.0514,-0.0513,-0.0521,-0.0518,-0.0513,-0.0504,-0.0498,-0.0498,-0.0488,-0.0478,-0.0466,-0.045,-0.0423,-0.0396,-0.0385,-0.0385,-0.0313,-0.0352,-0.0351,-0.034,-0.0272,-0.0262,-0.0253,-0.0367,-0.0367,-0.0367,0,0,-0.053,-0.0541,-0.0546,-0.0538,-0.0532,-0.0521,-0.0523,-0.0507,-0.0498,-0.0487,-0.0469,-0.0438,-0.042,-0.0378,-0.0358,-0.0336,-0.0311,-0.0336,-0.031,-0.0245,-0.0235,-0.0227,-0.0194,-0.0182,-0.0328,-0.0328,-0.0328,0,-0.0545,-0.055,-0.0546,-0.054,-0.0536,-0.0528,-0.0523,-0.0509,-0.0494,-0.0474,-0.0487,-0.0419,-0.0402,-0.0336,-0.0329,-0.0328,-0.0303,-0.0322,-0.0241,-0.0232,-0.0223,-0.0191,-0.0178,-0.0328,-0.0328,-0.0328,-0.0328,0,-0.0553,-0.0559,-0.056,-0.055,-0.0544,-0.0542,-0.052,-0.0509,-0.0502,-0.0477,-0.0427,-0.0395,-0.0348,-0.0333,-0.0327,-0.0248,-0.0257,-0.0252,-0.0246,-0.0212,-0.0181,-0.0168,-0.0327,-0.0327,-0.0327,-0.0327,0,0,-0.0577,-0.0567,-0.057,-0.0564,-0.0549,-0.0543,-0.0523,-0.0489,-0.0468,-0.0437,-0.0391,-0.0336,-0.0311,-0.0286,-0.0258,-0.0198,-0.0124,-0.0202,-0.0198,-0.0168,-0.0002,-0.0036,-0.0025,-0.0106,-0.0103,-0.0101,-0.0012,0,-0.0583,-0.0581,-0.057,-0.0566,-0.0559,-0.0539,-0.0521,-0.0489,-0.0461,-0.0416,-0.0349,-0.0307,-0.0294,-0.0272,-0.0205,-0.0149,-0.0087,-0.015,-0.004,-0.0037,-0.0069,-0.0009,-0.0093,-0.0002,0.0001,0.0004,0.0005,0,-0.0587,-0.0586,-0.0584,-0.0567,-0.0562,-0.0558,-0.0522,-0.0502,-0.0431,-0.0405,-0.0333,-0.0294,-0.0198,-0.0201,-0.0058,-0.0103,-0.0049,-0.0003,0.0002,-0.0019,-0.0045,-0.0038,0.0029,0.0027,0.0026,0.0024,0.0022,0,-0.0599,-0.0592,-0.0594,-0.0589,-0.0569,-0.0562,-0.055,-0.0499,-0.0474,-0.0394,-0.0367,-0.0253,-0.0205,-0.0102,-0.0019,-0.0033,0.0127,0.012,0.0148,0.0144,0.0143,0.0133,0.0237,0.0237,0.0237,0.0236,0.0236,0,-0.0599,-0.0602,-0.0605,-0.0604,-0.0606,-0.0583,-0.0565,-0.0535,-0.0481,-0.0436,-0.0364,-0.0307,-0.0178,-0.0081,0.0,0.011,0.0148,0.017,0.018,0.0139,0.0128,0.0151,0.014,0.024,0.0239,0.0238,0.0238,0,-0.0602,-0.0606,-0.061,-0.0607,-0.0611,-0.0612,-0.0596,-0.0573,-0.0528,-0.0466,-0.0443,-0.0335,-0.0207,-0.0087,0.0076,0.0121,0.0235,0.0264,0.0198,0.0199,0.0202,0.019,0.0315,0.0315,0.0314,0.0314,0.0314,0,-0.0598,-0.0603,-0.0624,-0.0636,-0.0638,-0.064,-0.0636,-0.0601,-0.057,-0.0478,-0.0443,-0.0323,-0.0237,-0.0034,0.0081,0.0244,0.0257,0.0296,0.0272,0.022,0.0218,0.0206,0.0194,0.0314,0.0314,0.0314,0.0314,0,-0.059,-0.0608,-0.0615,-0.0647,-0.0659,-0.0662,-0.0651,-0.0634,-0.0571,-0.0535,-0.0422,-0.0314,-0.0175,-0.0028,0.009,0.0205,0.0263,0.0296,0.0297,0.0274,0.0221,0.0216,0.0204,0.0314,0.0314,0.0314,0.0314,0,-0.0588,-0.0601,-0.0624,-0.0644,-0.0667,-0.067,-0.0665,-0.0615,-0.0581,-0.0477,-0.0439,-0.0289,-0.0198,-0.0047,0.0068,0.0171,0.0192,0.0203,0.0209,0.0211,0.0144,0.0059,0.0132,0,0,0,0,0,-0.0583,-0.0598,-0.0617,-0.0644,-0.0668,-0.0684,-0.0663,-0.0646,-0.059,-0.051,-0.047,-0.0334,-0.0156,-0.008,0.0023,0.0052,0.0195,0.0169,0.0206,0.0312,0.0312,0.0248,0,0,0,0,0,0,-0.0582,-0.0605,-0.0612,-0.0638,-0.0662,-0.0683,-0.0675,-0.064,-0.0585,-0.0517,-0.0415,-0.0347,-0.0168,-0.0215,0.0011,0.0043,0.0071,0.0261,0.0262,0.0311,0.0312,0.0312,0.0246,0,0,0,0,0]}]]